TimeMST,TemperatureF,Dew PointF,Humidity,Sea Level PressureIn,VisibilityMPH,Wind Direction,Wind SpeedMPH,Gust SpeedMPH,PrecipitationIn,Events,Conditions,WindDirDegrees,DateUTC
12:24 AM,26.6,24.8,93,29.84,1.5,NW,12.7,-,0.00,Snow,Light Snow,320,2012-12-07 07:24:00
12:38 AM,26.6,24.8,93,29.84,1.2,NW,9.2,-,0.00,Snow,Light Snow,320,2012-12-07 07:38:00
12:53 AM,27.0,24.1,89,29.90,1.8,NNW,10.4,-,0.00,Snow,Light Snow,330,2012-12-07 07:53:00
1:06 AM,26.6,24.8,93,29.84,1.0,NNW,9.2,-,0.01,Snow,Light Snow,330,2012-12-07 08:06:00
1:18 AM,26.6,24.8,93,29.84,1.5,NW,9.2,-,0.01,Snow,Light Snow,320,2012-12-07 08:18:00
1:37 AM,26.6,24.8,93,29.84,3.0,NNW,9.2,-,0.01,Snow,Light Snow,340,2012-12-07 08:37:00
1:53 AM,27.0,24.1,89,29.89,3.0,North,15.0,24.2,0.01,Snow,Light Snow,350,2012-12-07 08:53:00
1:59 AM,26.6,24.8,93,29.84,2.0,North,13.8,24.2,0.00,Snow,Light Snow,350,2012-12-07 08:59:00
2:14 AM,26.6,24.8,93,29.83,4.0,North,11.5,23.0,0.00,Snow,Light Snow,360,2012-12-07 09:14:00
2:48 AM,26.6,23.0,86,29.84,10.0,North,17.3,23.0,0.00,,Overcast,350,2012-12-07 09:48:00
2:53 AM,26.1,23.0,88,29.90,10.0,North,13.8,24.2,0.00,,Overcast,350,2012-12-07 09:53:00
3:53 AM,26.1,21.0,81,29.90,10.0,NNW,11.5,21.9,N/A,,Scattered Clouds,340,2012-12-07 10:53:00
4:53 AM,28.0,18.0,66,29.90,10.0,NNW,15.0,25.3,N/A,,Overcast,330,2012-12-07 11:53:00
5:53 AM,25.0,16.0,69,29.92,10.0,North,13.8,24.2,N/A,,Overcast,350,2012-12-07 12:53:00
6:53 AM,23.0,14.0,68,29.95,10.0,Calm,Calm,-,N/A,,Clear,0,2012-12-07 13:53:00
7:53 AM,21.0,18.0,88,29.96,10.0,SSE,5.8,-,N/A,,Clear,150,2012-12-07 14:53:00
8:53 AM,25.0,19.9,81,29.97,10.0,SSE,4.6,-,N/A,,Partly Cloudy,160,2012-12-07 15:53:00
9:53 AM,28.9,21.9,75,29.98,10.0,South,5.8,-,N/A,,Clear,180,2012-12-07 16:53:00
10:53 AM,28.9,23.0,78,29.98,10.0,South,5.8,-,N/A,,Overcast,170,2012-12-07 17:53:00
11:07 AM,28.4,23.0,80,29.89,1.8,South,4.6,-,0.00,Snow,Light Snow,170,2012-12-07 18:07:00
11:22 AM,28.4,24.8,86,29.88,2.0,SSE,5.8,-,0.00,Snow,Light Snow,160,2012-12-07 18:22:00
11:31 AM,30.2,26.6,86,29.88,4.0,South,5.8,-,0.00,Snow,Light Snow,170,2012-12-07 18:31:00
11:50 AM,30.2,24.8,80,29.87,10.0,Variable,4.6,-,0.00,,Overcast,0,2012-12-07 18:50:00
11:53 AM,30.9,26.1,82,29.95,10.0,South,4.6,-,0.00,,Overcast,190,2012-12-07 18:53:00
12:16 PM,30.2,24.8,80,29.86,10.0,SE,3.5,-,N/A,,Overcast,130,2012-12-07 19:16:00
12:53 PM,32.0,25.0,75,29.92,10.0,SE,4.6,-,N/A,,Overcast,130,2012-12-07 19:53:00
1:53 PM,32.0,24.1,73,29.91,10.0,South,9.2,-,N/A,,Clear,170,2012-12-07 20:53:00
2:53 PM,33.1,23.0,66,29.90,10.0,SE,9.2,-,N/A,,Scattered Clouds,140,2012-12-07 21:53:00
3:53 PM,32.0,21.9,66,29.92,10.0,ESE,4.6,-,N/A,,Clear,110,2012-12-07 22:53:00
4:53 PM,24.1,16.0,71,29.95,10.0,WSW,6.9,-,N/A,,Clear,240,2012-12-07 23:53:00
7:53 PM,23.0,16.0,74,29.91,10.0,South,5.8,-,N/A,,Clear,190,2012-12-08 02:53:00
8:53 PM,27.0,8.1,45,29.85,10.0,SSE,5.8,-,N/A,,Clear,160,2012-12-08 03:53:00
9:53 PM,27.0,8.1,45,29.80,10.0,East,8.1,-,N/A,,Clear,100,2012-12-08 04:53:00
10:53 PM,27.0,10.9,51,29.77,10.0,South,8.1,-,N/A,,Clear,170,2012-12-08 05:53:00
11:53 PM,32.0,8.1,37,29.72,10.0,Calm,Calm,-,N/A,,Clear,0,2012-12-08 06:53:00